VOI1713 KLAX-MMGL

Flight info

Callsign VOI1713
Flight time N/A
Altitude 33000
Route PNDAH2 OTAYY DCT TIJ UT4 ANTEL DCT SOUSY DCT AMULA AMULA1B
Aircraft A321/M-SDE3FGHIRWY/LB1

Departure

Time 2026-05-05 21:47
Airport Los Angeles International Airport (KLAX)

Arrival

Time N/A
Airport Guadalajara International Airport (MMGL)
Time Latitude Longitude Altitude Speed Heading
2026-05-05 20:52 33.94319 -118.41418 93 ft 0 kts 281°
2026-05-05 21:34 33.94318 -118.41413 93 ft 3 kts 281°
2026-05-05 21:34 33.94313 -118.41385 94 ft 2 kts 282°
2026-05-05 21:34 33.94311 -118.41356 93 ft 4 kts 256°
2026-05-05 21:34 33.94322 -118.41332 93 ft 4 kts 197°
2026-05-05 21:35 33.94346 -118.41332 91 ft 4 kts 173°
2026-05-05 21:35 33.94353 -118.41333 91 ft 0 kts 173°
2026-05-05 21:38 33.94351 -118.41333 93 ft 1 kts 173°
2026-05-05 21:38 33.94338 -118.41331 95 ft 4 kts 173°
2026-05-05 21:39 33.94304 -118.41326 94 ft 7 kts 173°
2026-05-05 21:39 33.94242 -118.41316 95 ft 10 kts 173°
2026-05-05 21:39 33.94168 -118.41305 93 ft 11 kts 173°
2026-05-05 21:39 33.94087 -118.41294 94 ft 12 kts 173°
2026-05-05 21:40 33.94001 -118.41281 94 ft 13 kts 173°
2026-05-05 21:40 33.93904 -118.41266 94 ft 15 kts 173°
2026-05-05 21:40 33.93803 -118.41251 94 ft 12 kts 173°
2026-05-05 21:40 33.93758 -118.41184 95 ft 12 kts 89°
2026-05-05 21:41 33.93769 -118.41078 95 ft 14 kts 83°
2026-05-05 21:41 33.93780 -118.40961 93 ft 14 kts 83°
2026-05-05 21:41 33.93793 -118.40841 94 ft 15 kts 83°
2026-05-05 21:41 33.93806 -118.40716 94 ft 15 kts 83°
2026-05-05 21:42 33.93819 -118.40589 94 ft 16 kts 83°
2026-05-05 21:42 33.93832 -118.40457 95 ft 16 kts 83°
2026-05-05 21:42 33.93846 -118.40322 96 ft 17 kts 83°
2026-05-05 21:42 33.93862 -118.40170 97 ft 19 kts 83°
2026-05-05 21:43 33.93878 -118.40012 96 ft 19 kts 83°
2026-05-05 21:43 33.93894 -118.39849 96 ft 20 kts 84°
2026-05-05 21:43 33.93911 -118.39678 95 ft 21 kts 83°
2026-05-05 21:43 33.93930 -118.39502 95 ft 21 kts 83°
2026-05-05 21:44 33.93949 -118.39318 93 ft 23 kts 83°
2026-05-05 21:44 33.93968 -118.39126 97 ft 23 kts 83°
2026-05-05 21:44 33.93988 -118.38933 94 ft 23 kts 83°
2026-05-05 21:44 33.94008 -118.38737 94 ft 24 kts 83°
2026-05-05 21:45 33.94026 -118.38560 96 ft 18 kts 83°
2026-05-05 21:45 33.94041 -118.38412 98 ft 17 kts 83°
2026-05-05 21:45 33.94056 -118.38270 97 ft 17 kts 83°
2026-05-05 21:45 33.94072 -118.38114 94 ft 18 kts 83°
2026-05-05 21:46 33.94064 -118.38015 94 ft 11 kts 136°
2026-05-05 21:46 33.93991 -118.38012 95 ft 10 kts 216°
2026-05-05 21:46 33.93977 -118.38081 94 ft 9 kts 262°
2026-05-05 21:46 33.93952 -118.38327 101 ft 63 kts 263°
2026-05-05 21:47 33.93870 -118.39120 95 ft 126 kts 263°
2026-05-05 21:47 33.93741 -118.40384 151 ft 170 kts 262°
2026-05-05 21:47 33.93573 -118.41915 879 ft 172 kts 261°
2026-05-05 21:47 33.93426 -118.43260 1724 ft 170 kts 263°
2026-05-05 21:48 33.93285 -118.44682 2300 ft 177 kts 262°
2026-05-05 21:48 33.92908 -118.46171 2517 ft 199 kts 243°
2026-05-05 21:48 33.92031 -118.47611 2699 ft 228 kts 232°
2026-05-05 21:48 33.90971 -118.49160 3109 ft 248 kts 232°
2026-05-05 21:49 33.89857 -118.50801 3737 ft 256 kts 231°
2026-05-05 21:49 33.88698 -118.52471 4447 ft 262 kts 230°
2026-05-05 21:49 33.87487 -118.54131 5203 ft 267 kts 223°
2026-05-05 21:49 33.85916 -118.55344 5855 ft 273 kts 201°
2026-05-05 21:50 33.84043 -118.55793 6497 ft 279 kts 180°
2026-05-05 21:50 33.82110 -118.55462 7126 ft 283 kts 166°
2026-05-05 21:50 33.80177 -118.54905 7751 ft 289 kts 166°
2026-05-05 21:50 33.78200 -118.54354 8380 ft 295 kts 166°
2026-05-05 21:51 33.76186 -118.53811 9062 ft 298 kts 167°
2026-05-05 21:51 33.74156 -118.53275 9770 ft 300 kts 167°
2026-05-05 21:51 33.72116 -118.52639 10327 ft 305 kts 157°
2026-05-05 21:51 33.70254 -118.51403 10883 ft 310 kts 141°
2026-05-05 21:52 33.67549 -118.47067 11160 ft 347 kts 114°
2026-05-05 21:52 33.66434 -118.44400 11286 ft 367 kts 115°
2026-05-05 21:52 33.65251 -118.41615 11545 ft 380 kts 116°
2026-05-05 21:53 33.64022 -118.38761 12022 ft 387 kts 116°
2026-05-05 21:53 33.62767 -118.35861 12433 ft 396 kts 116°
2026-05-05 21:53 33.61491 -118.32918 13046 ft 398 kts 117°
2026-05-05 21:53 33.60204 -118.29954 13600 ft 404 kts 117°
2026-05-05 21:54 33.58898 -118.26949 14175 ft 408 kts 117°
2026-05-05 21:54 33.57579 -118.23911 14771 ft 413 kts 117°
2026-05-05 21:54 33.56252 -118.20853 15468 ft 413 kts 117°
2026-05-05 21:54 33.54925 -118.17785 16043 ft 415 kts 117°
2026-05-05 21:55 33.53589 -118.14691 16545 ft 419 kts 117°
2026-05-05 21:55 33.52248 -118.11572 17063 ft 423 kts 117°
2026-05-05 21:55 33.50900 -118.08432 17661 ft 425 kts 116°
2026-05-05 21:55 33.49563 -118.05314 18203 ft 427 kts 116°
2026-05-05 21:56 33.48178 -118.02110 18730 ft 428 kts 118°
2026-05-05 21:56 33.46554 -117.99166 19167 ft 431 kts 128°
2026-05-05 21:56 33.44502 -117.96533 19580 ft 435 kts 137°
2026-05-05 21:56 33.42221 -117.94119 19973 ft 439 kts 138°
2026-05-05 21:57 33.39893 -117.91663 20385 ft 442 kts 139°
2026-05-05 21:57 33.37579 -117.89221 20813 ft 445 kts 139°
2026-05-05 21:57 33.35252 -117.86761 21237 ft 447 kts 139°
2026-05-05 21:57 33.32920 -117.84288 21690 ft 449 kts 139°
2026-05-05 21:58 33.30574 -117.81798 22077 ft 452 kts 139°
2026-05-05 21:58 33.28212 -117.79293 22447 ft 456 kts 139°
2026-05-05 21:58 33.25836 -117.76776 22877 ft 458 kts 139°
2026-05-05 21:58 33.23447 -117.74247 23285 ft 460 kts 139°
2026-05-05 21:59 33.21041 -117.71703 23674 ft 463 kts 139°
2026-05-05 21:59 33.18624 -117.69151 23993 ft 465 kts 139°
2026-05-05 21:59 33.16193 -117.66586 24307 ft 468 kts 139°
2026-05-05 21:59 33.13767 -117.63986 24625 ft 470 kts 138°
2026-05-05 22:00 33.11358 -117.61326 24928 ft 473 kts 137°
2026-05-05 22:00 33.08961 -117.58630 25219 ft 475 kts 137°
2026-05-05 22:00 33.06556 -117.55908 25507 ft 478 kts 137°
2026-05-05 22:00 33.04134 -117.53179 25794 ft 480 kts 137°
2026-05-05 22:01 33.01722 -117.50478 26038 ft 484 kts 138°
2026-05-05 22:01 32.99221 -117.47695 26292 ft 487 kts 139°
2026-05-05 22:01 32.96732 -117.44939 26631 ft 489 kts 139°
2026-05-05 22:01 32.94233 -117.42180 26933 ft 491 kts 139°
2026-05-05 22:02 32.91759 -117.39454 27290 ft 491 kts 139°
2026-05-05 22:02 32.89254 -117.36693 27684 ft 491 kts 139°
2026-05-05 22:02 32.86751 -117.33932 28068 ft 491 kts 140°
2026-05-05 22:02 32.84249 -117.31169 28452 ft 491 kts 140°
2026-05-05 22:03 32.81749 -117.28405 28831 ft 491 kts 140°
2026-05-05 22:03 32.79248 -117.25645 29222 ft 491 kts 140°
2026-05-05 22:03 32.76743 -117.22883 29602 ft 491 kts 140°
2026-05-05 22:03 32.74238 -117.20125 29974 ft 491 kts 140°
2026-05-05 22:04 32.71734 -117.17368 30283 ft 491 kts 141°
2026-05-05 22:04 32.69232 -117.14617 30641 ft 489 kts 141°
2026-05-05 22:04 32.66748 -117.11872 30998 ft 489 kts 139°
2026-05-05 22:04 32.64425 -117.08905 31252 ft 491 kts 137°
2026-05-05 22:05 32.62133 -117.05892 31498 ft 493 kts 137°
2026-05-05 22:05 32.59834 -117.02872 31761 ft 493 kts 137°
2026-05-05 22:05 32.58309 -117.00873 31978 ft 493 kts 137°
2026-05-05 22:05 32.55227 -116.96839 32380 ft 493 kts 138°
2026-05-05 22:06 32.53701 -116.94843 32562 ft 494 kts 138°
2026-05-05 22:06 32.51386 -116.91843 32837 ft 493 kts 139°
2026-05-05 22:06 32.49054 -116.88860 33050 ft 494 kts 139°
2026-05-05 22:07 32.44374 -116.82931 33097 ft 491 kts 141°
2026-05-05 22:07 32.39720 -116.77037 33081 ft 489 kts 140°
2026-05-05 22:08 32.35078 -116.71138 33074 ft 489 kts 141°
2026-05-05 22:08 32.30434 -116.65244 33068 ft 489 kts 140°
2026-05-05 22:09 32.25791 -116.59369 33030 ft 489 kts 142°
2026-05-05 22:09 32.21139 -116.53496 33028 ft 490 kts 143°
2026-05-05 22:10 32.16475 -116.47612 33050 ft 492 kts 143°
2026-05-05 22:10 32.11802 -116.41719 33062 ft 492 kts 143°